When you browse on this site, cookies collect data to enhance your experience and personalize the content and advertising you see.
Visit our Privacy Policy to learn more. By continuing to use the site, you agree to this use of cookies and data.
  • En España
  • Lista de países
  • Para 7 días
  • Temperatura del agua
  • El tiempo en el mapa
  • Informadores
  • user-avatar
    Iniciar sesión

    Tiempo cada hora La Laja

    Hoy, 20 Enero, Lunes

    Tiempo Temperatura Precipitaciones Viento Presión Humedad
    00:00 +17°C° 0 mm 2 mps 750 mmHg 46%
    01:00 +16°C° 0 mm 2 mps 750 mmHg 49%
    02:00 +15°C° 0 mm 2 mps 750 mmHg 51%
    03:00 +14°C° 0 mm 1 mps 750 mmHg 52%
    04:00 +13°C° 0 mm 1 mps 750 mmHg 54%
    05:00 +15°C° 0 mm 1 mps 750 mmHg 50%
    06:00 +18°C° 0 mm 1 mps 750 mmHg 45%
    07:00 +20°C° 0 mm 1 mps 750 mmHg 40%
    08:00 +24°C° 0 mm 1 mps 750 mmHg 33%
    09:00 +28°C° 0 mm 1 mps 750 mmHg 26%
    10:00 +32°C° 0 mm 1 mps 750 mmHg 19%
    11:00 +34°C° 0 mm 1 mps 750 mmHg 17%
    12:00 +37°C° 0 mm 1 mps 750 mmHg 15%
    13:00 +40°C° 0 mm 1 mps 750 mmHg 12%
    14:00 +39°C° 0 mm 2 mps 750 mmHg 13%
    15:00 +38°C° 0 mm 2 mps 750 mmHg 14%
    16:00 +37°C° 0 mm 3 mps 750 mmHg 15%
    17:00 +34°C° 0 mm 2 mps 750 mmHg 23%
    18:00 +29°C° 0 mm 2 mps 750 mmHg 31%
    19:00 +26°C° 0 mm 1 mps 751 mmHg 39%
    20:00 +24°C° 0 mm 2 mps 751 mmHg 43%
    21:00 +21°C° 0 mm 2 mps 751 mmHg 47%
    22:00 +20°C° 0 mm 2 mps 751 mmHg 51%
    23:00 +19°C° 0 mm 2 mps 751 mmHg 54%

    Mañana, 21 Enero, Martes

    Tiempo Temperatura Precipitaciones Viento Presión Humedad
    00:00 +18°C° 0 mm 2 mps 751 mmHg 56%
    01:00 +17°C° 0 mm 2 mps 751 mmHg 59%
    02:00 +16°C° 0 mm 2 mps 750 mmHg 63%
    03:00 +15°C° 0 mm 2 mps 750 mmHg 67%
    04:00 +14°C° 0 mm 2 mps 750 mmHg 71%
    05:00 +16°C° 0 mm 2 mps 750 mmHg 64%
    06:00 +18°C° 0 mm 2 mps 750 mmHg 58%
    07:00 +20°C° 0 mm 2 mps 751 mmHg 52%
    08:00 +25°C° 0 mm 2 mps 750 mmHg 42%
    09:00 +29°C° 0 mm 2 mps 750 mmHg 32%
    10:00 +34°C° 0 mm 2 mps 750 mmHg 23%
    11:00 +37°C° 0 mm 2 mps 750 mmHg 19%
    12:00 +39°C° 0 mm 3 mps 749 mmHg 15%
    13:00 +42°C° 0 mm 3 mps 749 mmHg 11%
    14:00 +42°C° 0 mm 3 mps 749 mmHg 11%
    15:00 +41°C° 0 mm 4 mps 748 mmHg 12%
    16:00 +41°C° 0 mm 4 mps 748 mmHg 12%
    17:00 +37°C° 0 mm 4 mps 748 mmHg 19%
    18:00 +34°C° 0 mm 3 mps 748 mmHg 25%
    19:00 +30°C° 0 mm 3 mps 749 mmHg 32%
    20:00 +28°C° 0 mm 3 mps 749 mmHg 36%
    21:00 +26°C° 0 mm 3 mps 749 mmHg 40%
    22:00 +24°C° 0 mm 3 mps 749 mmHg 44%
    23:00 +21°C° 0 mm 3 mps 749 mmHg 47%

    Pasado mañana, 22 Enero, Miércoles

    Tiempo Temperatura Precipitaciones Viento Presión Humedad
    00:00 +20°C° 0 mm 3 mps 749 mmHg 50%
    01:00 +18°C° 0 mm 2 mps 748 mmHg 52%
    02:00 +17°C° 0 mm 2 mps 748 mmHg 56%
    03:00 +16°C° 0 mm 2 mps 748 mmHg 59%
    04:00 +15°C° 0 mm 2 mps 748 mmHg 62%
    05:00 +18°C° 0 mm 1 mps 748 mmHg 57%
    06:00 +20°C° 0 mm 1 mps 748 mmHg 52%
    07:00 +22°C° 0 mm 1 mps 748 mmHg 46%
    08:00 +26°C° 0 mm 1 mps 748 mmHg 38%
    09:00 +30°C° 0 mm 1 mps 748 mmHg 30%
    10:00 +34°C° 0 mm 1 mps 749 mmHg 22%
    11:00 +36°C° 0 mm 2 mps 748 mmHg 21%
    12:00 +37°C° 0 mm 3 mps 748 mmHg 19%
    13:00 +38°C° 0 mm 3 mps 748 mmHg 18%
    14:00 +37°C° 0 mm 4 mps 748 mmHg 20%
    15:00 +36°C° 0 mm 4 mps 748 mmHg 23%
    16:00 +34°C° 0 mm 4 mps 748 mmHg 26%
    17:00 +30°C° 0 mm 3 mps 749 mmHg 35%
    18:00 +26°C° 0 mm 2 mps 749 mmHg 44%
    19:00 +23°C° 0 mm 2 mps 749 mmHg 53%
    20:00 +21°C° 0 mm 1 mps 749 mmHg 64%
    21:00 +18°C° 0 mm 1 mps 750 mmHg 74%
    22:00 +15°C° 0 mm 1 mps 750 mmHg 84%
    23:00 +14°C° 0 mm 1 mps 750 mmHg 86%

    23 Enero, Jueves

    Tiempo Temperatura Precipitaciones Viento Presión Humedad
    00:00 +13°C° 0 mm 0 mps 750 mmHg 87%
    01:00 +12°C° 0 mm 0 mps 750 mmHg 89%
    02:00 +12°C° 0 mm 0 mps 750 mmHg 89%
    03:00 +12°C° 0 mm 0 mps 751 mmHg 90%
    04:00 +11°C° 0 mm 0 mps 751 mmHg 90%
    05:00 +14°C° 0 mm 0 mps 752 mmHg 81%
    06:00 +16°C° 0 mm 0 mps 752 mmHg 71%
    07:00 +18°C° 0 mm 0 mps 753 mmHg 62%
    08:00 +24°C° 0 mm 1 mps 753 mmHg 51%
    09:00 +27°C° 0 mm 1 mps 753 mmHg 40%
    10:00 +31°C° 0 mm 1 mps 753 mmHg 29%
    11:00 +32°C° 0 mm 2 mps 753 mmHg 26%
    12:00 +35°C° 0 mm 2 mps 753 mmHg 23%
    13:00 +37°C° 0 mm 2 mps 753 mmHg 20%
    14:00 +36°C° 0 mm 2 mps 753 mmHg 22%
    15:00 +35°C° 0 mm 3 mps 752 mmHg 23%
    16:00 +35°C° 0 mm 3 mps 752 mmHg 25%
    17:00 +31°C° 0 mm 3 mps 753 mmHg 28%
    18:00 +28°C° 0 mm 3 mps 753 mmHg 31%
    19:00 +26°C° 0 mm 3 mps 753 mmHg 35%
    20:00 +24°C° 0 mm 3 mps 753 mmHg 42%
    21:00 +20°C° 0 mm 3 mps 753 mmHg 49%
    22:00 +18°C° 0 mm 3 mps 753 mmHg 56%
    23:00 +17°C° 0 mm 3 mps 753 mmHg 60%

    24 Enero, Viernes

    Tiempo Temperatura Precipitaciones Viento Presión Humedad
    00:00 +16°C° 0 mm 3 mps 753 mmHg 63%
    01:00 +15°C° 0 mm 2 mps 753 mmHg 66%
    02:00 +15°C° 0 mm 2 mps 753 mmHg 67%
    03:00 +14°C° 0 mm 2 mps 753 mmHg 68%
    04:00 +14°C° 0 mm 2 mps 753 mmHg 69%
    05:00 +16°C° 0 mm 2 mps 753 mmHg 60%
    06:00 +18°C° 0 mm 2 mps 753 mmHg 51%
    07:00 +20°C° 0 mm 2 mps 754 mmHg 42%
    08:00 +24°C° 0 mm 2 mps 754 mmHg 33%
    09:00 +28°C° 0 mm 3 mps 753 mmHg 23%
    10:00 +31°C° 0 mm 3 mps 753 mmHg 14%
    11:00 +33°C° 0 mm 3 mps 753 mmHg 13%
    12:00 +35°C° 0 mm 3 mps 753 mmHg 11%
    13:00 +36°C° 0 mm 3 mps 753 mmHg 10%
    14:00 +36°C° 0 mm 3 mps 753 mmHg 11%
    15:00 +35°C° 0 mm 4 mps 753 mmHg 11%
    16:00 +35°C° 0 mm 4 mps 753 mmHg 12%
    17:00 +32°C° 0 mm 4 mps 753 mmHg 15%
    18:00 +28°C° 0 mm 4 mps 753 mmHg 18%
    19:00 +25°C° 0 mm 4 mps 754 mmHg 20%
    20:00 +22°C° 0 mm 4 mps 754 mmHg 25%
    21:00 +19°C° 0 mm 3 mps 754 mmHg 29%
    22:00 +17°C° 0 mm 3 mps 754 mmHg 34%
    23:00 +16°C° 0 mm 3 mps 754 mmHg 37%

    25 Enero, Sábado

    Tiempo Temperatura Precipitaciones Viento Presión Humedad
    00:00 +15°C° 0 mm 2 mps 754 mmHg 41%
    01:00 +14°C° 0 mm 2 mps 754 mmHg 44%
    02:00 +14°C° 0 mm 2 mps 754 mmHg 46%
    03:00 +14°C° 0 mm 2 mps 754 mmHg 47%
    04:00 +14°C° 0 mm 2 mps 754 mmHg 49%
    05:00 +16°C° 0 mm 2 mps 754 mmHg 46%
    06:00 +18°C° 0 mm 2 mps 754 mmHg 42%
    07:00 +20°C° 0 mm 2 mps 754 mmHg 38%
    08:00 +24°C° 0 mm 3 mps 754 mmHg 33%
    09:00 +27°C° 0 mm 3 mps 754 mmHg 28%
    10:00 +30°C° 0 mm 3 mps 754 mmHg 23%
    11:00 +33°C° 0 mm 3 mps 754 mmHg 22%
    12:00 +34°C° 0 mm 4 mps 753 mmHg 22%
    13:00 +36°C° 0 mm 4 mps 753 mmHg 21%
    14:00 +35°C° 0 mm 4 mps 753 mmHg 22%
    15:00 +35°C° 0 mm 4 mps 753 mmHg 23%
    16:00 +35°C° 0 mm 4 mps 753 mmHg 24%
    17:00 +32°C° 0 mm 4 mps 753 mmHg 31%
    18:00 +29°C° 0 mm 4 mps 754 mmHg 39%
    19:00 +26°C° 0 mm 3 mps 754 mmHg 46%
    20:00 +24°C° 0 mm 3 mps 754 mmHg 54%
    21:00 +21°C° 0 mm 3 mps 754 mmHg 62%
    22:00 +19°C° 0 mm 2 mps 755 mmHg 71%
    23:00 +18°C° 0 mm 2 mps 754 mmHg 75%
    Mostrar más